STARLINK-35365, 66186

Orbit data source: Space-Track

STARLINK-35365, 66186 is a payload satellite owned by SpaceX/Seattle (US) in LEO that was launched on Sun, 26 Oct 2025 UTC via an FALCON 9 launch vehicle from the Air Force Eastern Test Range (AFETR). Payload-class satellites include a variety of spacecraft equipped with specific instruments for various scientific and technological missions. These include communications satellites like Starlink; space stations such as the ISS; scientific satellites like the Hubble; Earth observation satellites from companies like Planet Labs, Umbra, and HawkEye 360; GPS; miniature CubeSats for education and research; and military/defense satellites.

Loading next visibility...
Identifier
66186, 2025-243K
Orbit
LEO
Country
Flag of USUS
Related business
Manufacturer
SpaceX/Seattle
Mission
Operational Commercial Communications
Bus & Motor
STARLINK V2MO, Unknown motor
Mass
575 kg wet, ~530 kg dry
Launch date (UTC)
2025-10-26 (4 months ago)
Launch vehicle
FALCON 9
Launch site
Air Force Eastern Test Range (AFETR)
Object type
Payload
Rocket body
Debris
Shape & HBR
Box + 2 Pan, 17.7 m
Radar Cross Section
36.964 m²

Expand to show TLE details & history
Last TLE update: 9 hours ago

TLE from 9 hours ago
0 STARLINK-35365
1 66186U 25243K   26061.78267375  .00028657  00000-0  97552-3 0  9992
2 66186  53.1589 277.5263 0000885 101.5777 258.5323 15.30213894 19599
Epoch: 2026-03-02T18:47Z
TLE epoch observation values (Epoch: 2026-03-02T18:47:03.012Z)
Latitude
-0.00001°
Longitude
-164.8074°
Altitude
476.194 km
Speed
7.629 km/s
True Right ascension
18h 30m 06s
True Declination
0° 00' 00"
Sunlit
Object was in daylight at epoch
Visualization orbit readout
Latitude
Unknown
Longitude
Unknown
Altitude
Unknown
Speed
Unknown
Apparent Right ascension
Unknown
Apparent Declination
Unknown
Sunlit
N/A
Visualization observer readout
Local Sidereal Time
07:11:09
Azimuth
Unknown
Elevation
Unknown
Doppler factor
Unknown
Orbital elements
Apogee altitude
476.037 km
Perigee altitude
474.824 km
Semi-major axis
6,853.567 km
Eccentricity
0.00009
Inclination
53.1589°
RAAN
277.5263°
Arg. of periapsis
101.5777°
True anomaly
258.52236°
Mean anomaly
258.5323°
Eccentric anomaly
258.52733°
Mean motion
3.82532 °/min
Orbital period
94.11 mins
BSTAR
0.00097552
Loading maneuver chart data...
Computing Atmospheric mass density...
Loading historical data...
Loading historical data...
Loading historical data...
Loading historical data...
Loading historical data...
Loading historical data...
Loading historical data...

Documentation

Showing up to 5 results
|